Location: Henham
(51.9333°N, 0.2500°E)
Time: 04:00:59
(UTC+00:00)

STARLINK-32 - Pass Details

Date: 23 October 2019
Orbit: 548 x 551 km, 53.0° (Epoch: 12 November)

Event Time Altitude Azimuth Distance (km) Brightness Sun altitude
Rises 18:00:18 0° 277° (W) 2,718 9.1 -11.6°
Reaches altitude 10° 18:02:32 10° 279° (W) 1,824 7.7 -12.0°
Maximum altitude 18:06:41 77° 5° (N) 568 3.6 -12.6°
Enters shadow 18:09:23 21° 90° (E) 1,265 4.8 -13.0°
